Weather in Leiden

Netherlands     52°09′36″N   4°28′55″E
temp.,
°C
wind,
m/s
gust,
m/s
humid.,
%
clouds,
%
prec.,
mm/h
press.,
hPa
HPBL,
m
26 june, sun
sun2623:00+16ese2395100 2.3 1011193
02:00+16sw3794100 3.6 1012493
05:00+15ssw4891100 0.0 1012440
08:00+15ssw4789100 0.0 1014436
11:00+18ssw4667100 0.0 1015837
14:00+18sw465999 0.0 1015961
17:00+19w3555100 0.0 10151049
20:00+18nnw3362100 0.0 1015140
27 june, mon
mon2723:00+17ene3567100 0.0 1016130
02:00+17e2374100 0.0 101586
05:00+16sse2375100 0.0 101580
08:00+17s3374100 0.0 1015164
11:00+19wsw456399 0.0 1016612
14:00+16nw6774100 0.5 1017456
17:00+18w46570 0.0 1018733
20:00+17wsw46622 0.0 1019597
28 june, tue
tue2823:00+16sw47675 0.0 1020410
02:00+15ssw347849 0.0 1020208
05:00+14ssw47813 0.1 1020399
08:00+15ssw46700 0.1 1021454
11:00+18sw46525 0.0 10211022
14:00+19w46545 0.0 10201009
17:00+19nw3352100 0.0 1018551
20:00+20ne3456100 0.0 1017171
29 june, wed
wed2923:00+18e496899 0.0 1017178
02:00+17ese47725 0.0 1016134
05:00+16se467070 0.0 1015107
08:00+18sse3665100 0.0 1015143
11:00+21sw355599 0.0 1015426
14:00+20w55601 0.0 1016555
17:00+20nnw42603 0.0 1015413
20:00+19n4565100 0.0 1014231
30 june, thu
thu3023:00+19nne35742 0.0 1014122
02:00+18ene34780 0.0 101375
05:00+17e34840 0.0 101276
08:00+19se12810 0.1 1012115
11:00+23s13603 0.0 1011438
14:00+24wnw245987 0.0 10101102
17:00+21wnw767490 0.0 1009299
20:00+18nw4695100 4.4 1008144